Probability
3 3 5 6 3 1 0 0 0 0 0 0 0 0 0 0 0 0 0 0 0 0 0 0 0 0 0 0 0 0 0 0 0 0 0 0 0 0 0 0 0 0 0 0 0 0 0 0 0
2 2 3 3 1 0 0 0 0 0 0 0 0 0 0 0 0 0 0 0 0 0 0 0 0 0 0 0 0 0 0 0 0 0 0 0 0 0 0 0 0 0 0 0 0 0 0 0 0
0 1 1 1 0 0 0 0 0 0 0 0 0 0 0 0 0 0 0 0 0 0 1 1 1 0 0 0 0 0 0 0 0 0 0 0 0 0 0 0 0 0 0 0 0 0 0 0 0
0 0 0 0 0 0 0 0 0 0 0 0 0 0 0 0 0 0 0 0 0 0 1 2 1 0 0 0 0 0 0 0 0 0 0 0 0 0 0 0 0 0 0 0 0 0 0 0 0
0 0 0 0 0 0 0 0 0 0 0 0 0 0 0 0 0 0 0 0 0 0 1 1 1 0 0 0 0 0 0 0 0 0 0 0 0 0 0 0 0 0 0 0 0 0 0 0 0
0 0 0 0 0 0 0 0 0 0 0 0 0 0 0 0 0 0 0 0 0 0 0 0 0 0 0 0 0 0 0 0 0 0 0 0 0 0 0 0 0 0 0 0 0 0 0 0 0
0 0 0 0 0 0 0 0 0 1 1 1 0 0 1 1 1 1 0 0 0 0 0 0 0 0 0 0 0 0 0 0 0 0 0 0 0 0 0 0 0 0 0 0 0 0 0 0 0
0 0 0 0 0 0 0 0 0 1 2 2 1 0 1 3 3 2 1 0 0 0 0 0 0 0 0 0 0 0 0 0 0 0 0 0 0 0 0 0 0 0 0 0 0 0 0 0 0
0 0 0 0 0 0 0 0 0 1 3 3 1 1 3 4 4 3 2 1 1 1 1 0 0 0 0 0 0 0 1 0 0 0 0 0 0 0 0 0 0 0 0 0 0 0 0 0 0
0 0 0 0 0 0 0 0 1 2 3 3 3 4 6 7 5 4 3 3 4 3 2 1 0 0 0 0 0 0 0 0 0 0 0 0 0 0 0 0 0 0 0 0 0 0 0 0 0
0 0 0 0 0 0 0 0 1 2 3 3 4 7 9 8 6 4 3 4 5 4 3 2 0 0 0 0 0 0 0 0 0 0 0 0 0 0 0 0 0 0 0 0 0 0 0 0 0
0 0 0 0 0 0 0 0 0 1 1 3 6 9 10 8 6 6 4 4 5 4 3 2 0 0 0 0 0 0 0 0 0 0 0 0 0 0 0 0 0 0 0 0 0 0 0 0 0
0 0 0 0 0 0 0 0 0 0 1 4 7 10 10 8 7 8 6 4 4 4 3 1 0 0 0 1 1 0 0 0 0 0 0 1 2 1 1 0 1 1 1 0 0 0 0 0 0
0 0 0 0 0 0 0 1 1 1 1 4 8 9 8 6 6 8 7 4 3 3 2 1 0 0 0 1 1 0 0 0 0 0 0 2 3 3 2 2 2 2 2 1 1 0 0 0 0
0 0 0 0 0 0 0 1 2 2 2 4 6 7 7 5 5 6 6 4 3 2 1 0 0 1 1 1 1 0 0 0 0 0 0 1 2 3 3 3 3 3 2 2 2 1 0 0 0
0 0 0 0 0 0 0 1 2 3 2 3 5 6 7 5 4 4 6 5 4 3 2 2 2 3 3 2 1 0 0 0 0 1 1 1 1 2 4 4 4 3 2 2 2 1 1 1 1
0 0 0 0 0 0 0 1 2 3 3 3 3 6 8 6 4 5 7 7 6 5 7 8 8 7 6 4 3 2 1 2 2 3 3 2 1 2 4 5 4 3 3 3 2 1 2 2 2
0 0 0 0 0 0 0 1 2 4 4 4 4 6 8 6 5 6 6 6 6 9 12 14 14 15 13 10 9 8 6 5 5 6 5 4 3 3 4 6 5 4 5 4 2 1 2 3 3
0 0 0 0 0 0 0 0 2 4 6 7 7 9 8 6 6 7 5 4 7 12 16 17 19 21 20 17 16 16 14 11 9 8 6 5 4 4 5 7 6 5 6 5 3 3 3 4 4
0 0 0 0 0 0 0 0 1 3 6 7 9 10 7 6 8 8 6 4 7 13 16 18 21 24 24 23 21 20 18 14 11 10 8 6 5 4 6 8 8 7 8 7 6 6 6 6 6
0 0 0 0 0 0 0 0 0 2 4 6 7 7 6 5 6 7 5 3 5 9 14 17 20 24 26 23 21 21 19 15 13 13 11 7 6 6 8 9 10 10 11 10 9 7 7 8 9
0 0 0 0 0 0 0 0 0 1 3 4 5 6 5 4 4 4 2 1 3 6 11 16 20 25 25 22 21 21 19 14 13 15 11 8 8 9 10 10 11 12 13 12 9 6 6 7 8
0 0 0 0 0 0 0 0 0 1 2 3 5 6 5 5 5 3 0 0 2 5 9 16 22 27 28 26 24 23 19 14 13 14 12 9 9 11 12 12 12 13 13 11 9 6 4 4 6
0 1 1 0 0 0 0 0 1 1 1 2 5 6 5 7 8 5 3 3 5 8 13 19 25 30 34 33 29 26 22 16 15 16 14 10 9 12 13 13 13 12 11 11 10 7 4 3 3
1 1 1 0 0 0 0 0 1 0 0 1 4 5 6 9 11 9 8 10 13 15 19 24 29 33 36 36 32 28 24 18 16 17 15 11 10 11 12 12 12 10 9 10 11 8 5 3 2
0 1 1 0 0 0 0 0 0 0 0 1 3 4 6 9 12 12 13 15 18 20 22 27 31 33 34 33 31 28 23 17 15 15 15 13 11 10 11 11 10 9 9 10 10 8 7 6 4
0 0 0 0 0 0 0 0 0 0 0 1 3 4 6 9 12 12 13 15 19 21 22 26 30 31 28 26 26 24 21 18 15 15 16 16 14 11 11 12 12 11 10 10 9 8 8 7 6
0 0 0 0 0 0 0 0 0 1 1 3 5 6 6 8 11 13 14 16 18 19 20 22 25 25 22 20 20 19 17 17 17 18 20 19 16 13 12 14 13 11 10 9 9 8 7 6 5
0 0 0 0 0 0 0 0 1 2 3 5 7 9 9 10 13 17 18 17 17 18 20 21 22 21 19 18 17 15 14 14 16 18 19 18 16 12 12 12 11 10 9 9 9 9 7 5 4
0 0 1 1 1 0 0 1 2 3 4 5 8 9 10 13 17 20 19 18 16 17 21 23 22 20 18 17 16 14 12 12 15 16 16 15 14 11 11 11 9 9 9 10 10 10 7 4 3
Wind_Speed
9 8 6 6 3 8 14 12 10 9 8 9 8 7 9 11 9 11 9 10 10 11 12 11 10 11 11 11 12 12 12 13 13 13 13 13 13 13 13 13 13 13 14 14 14 15 15 14 15
6 6 6 3 5 11 13 11 11 10 9 8 8 8 10 11 11 11 10 10 10 11 11 11 11 10 11 11 11 11 12 12 12 12 12 12 12 12 12 12 13 13 13 13 13 14 14 14 13
6 7 4 4 11 12 13 11 11 10 8 6 7 8 9 9 9 8 11 12 11 10 10 12 9 10 10 10 10 11 11 11 11 11 11 11 11 12 11 12 12 12 12 13 13 13 13 13 12
5 5 1 7 15 14 12 10 9 9 8 7 8 10 9 8 6 10 13 11 11 10 11 13 8 9 9 9 10 10 10 10 11 11 11 10 11 11 11 11 11 11 11 12 12 12 12 11 11
5 2 6 12 14 12 10 8 6 7 7 7 8 12 11 8 10 13 12 11 10 10 10 13 9 9 9 9 9 10 10 10 10 10 10 10 10 10 10 11 11 10 10 11 11 11 11 10 10
3 1 7 12 13 9 8 7 6 9 9 9 10 12 10 8 11 12 11 10 10 9 10 12 10 9 8 8 8 9 9 9 9 9 9 9 9 9 9 9 9 9 10 10 10 10 10 9 9
2 5 10 11 10 9 7 5 6 8 9 8 8 10 10 10 11 11 10 8 8 8 9 9 11 10 9 7 7 8 8 8 8 9 9 8 8 8 8 8 8 8 8 8 9 9 9 8 8
3 2 9 10 10 10 8 6 7 7 9 9 5 7 11 13 12 11 10 9 8 8 8 7 7 7 8 9 8 7 7 7 7 7 7 7 8 8 7 7 7 7 7 7 7 7 7 7 7
4 2 9 9 8 9 8 8 7 7 10 7 5 7 15 17 13 12 10 9 8 6 6 6 6 6 5 6 8 7 7 6 7 7 6 5 4 6 7 9 7 6 6 6 6 6 6 6 7
2 6 10 7 7 8 7 6 8 8 9 9 10 13 17 15 13 12 11 10 9 8 7 5 4 5 4 4 5 3 4 5 3 3 3 3 3 2 4 9 5 5 5 5 5 5 7 7 6
3 7 7 5 5 6 7 7 6 6 7 8 13 17 17 15 13 11 9 8 8 7 6 6 5 4 3 3 3 2 2 3 4 4 2 2 2 2 2 3 5 5 5 4 6 7 4 3 1
3 6 4 5 5 5 6 6 5 3 7 8 13 17 17 15 13 11 10 8 8 7 6 5 5 4 2 1 2 2 2 2 2 3 2 2 1 1 1 1 2 2 2 1 1 2 2 1 1
4 5 5 5 5 5 6 6 5 6 7 11 15 16 15 14 12 10 8 8 7 6 6 6 5 4 4 2 2 2 1 1 2 1 1 1 2 1 1 0 1 1 1 2 2 1 2 2 3
4 5 6 6 6 6 5 6 5 7 10 13 15 15 14 12 12 10 9 8 7 7 7 6 6 5 4 4 2 2 2 1 1 1 1 2 2 1 2 2 2 2 2 1 1 2 2 3 2
4 6 7 6 5 5 5 6 5 9 11 13 13 13 12 12 11 10 9 8 8 8 7 7 7 6 5 5 4 3 2 2 2 1 2 3 3 2 3 3 3 2 2 2 3 3 3 4 4
7 7 6 6 4 4 7 5 9 10 11 12 12 12 11 11 11 10 9 8 8 7 7 7 6 6 6 5 3 3 3 2 2 2 2 3 3 3 4 3 3 3 3 3 3 4 4 3 4
8 7 5 7 5 4 5 4 9 9 11 11 11 11 11 11 11 10 9 9 8 7 7 7 6 5 6 5 4 4 3 3 3 3 3 3 3 4 4 3 3 4 3 3 5 3 3 4 4
6 6 5 5 5 5 5 3 8 9 10 11 11 11 11 11 12 11 10 9 8 8 8 7 7 6 6 5 4 4 4 4 3 3 3 4 4 4 4 4 3 4 3 4 4 4 4 4 4
4 5 4 3 3 5 5 4 6 9 10 11 11 11 11 11 10 10 10 9 9 8 8 8 8 7 6 4 4 4 4 3 3 3 3 4 5 4 4 4 3 4 4 4 5 5 6 5 4
7 7 5 4 2 4 4 5 5 8 11 11 11 11 11 11 10 10 10 9 10 9 9 9 9 8 7 5 4 3 3 3 3 2 2 4 4 4 4 4 4 4 4 5 5 5 4 4 3
9 8 5 3 4 5 6 7 6 7 8 9 10 11 11 11 12 12 11 10 10 10 10 8 8 7 7 6 4 3 3 3 3 3 2 3 4 4 4 4 4 4 5 4 5 5 5 5 3
10 6 5 5 7 5 5 5 6 7 8 10 11 12 12 12 11 11 11 11 10 10 9 9 8 7 7 7 6 6 4 4 3 2 2 3 4 4 4 4 5 5 5 5 6 5 5 6 5
5 4 6 7 7 6 6 8 3 5 6 7 10 11 12 11 11 11 10 10 9 9 9 8 8 7 7 7 6 6 5 4 3 2 2 3 3 4 4 4 4 4 4 5 5 4 5 4 5
7 7 5 7 8 9 5 7 3 3 2 3 6 8 10 10 10 9 9 8 8 8 8 8 7 7 7 7 6 6 5 4 3 3 2 3 2 2 3 4 3 4 4 4 4 4 4 4 4
11 10 8 9 9 7 4 7 2 2 1 1 3 5 8 9 9 9 9 9 9 9 8 8 8 7 7 6 6 5 5 4 4 4 2 3 2 2 2 3 3 3 3 3 3 3 3 3 4
14 14 10 8 8 6 6 7 1 1 0 1 2 4 6 8 9 9 9 9 9 9 9 8 8 7 6 6 5 4 4 3 3 2 3 2 2 2 2 2 2 2 3 3 2 2 2 2 3
13 13 11 9 8 7 6 5 4 4 4 4 5 6 6 8 9 9 9 9 9 9 8 8 7 6 6 5 5 4 3 3 2 1 2 1 2 2 2 2 2 2 2 2 2 1 1 1 1
8 10 8 10 8 9 8 8 5 5 5 5 6 6 7 8 9 9 9 9 8 8 8 7 7 6 6 5 4 3 3 2 1 1 0 1 2 2 2 2 2 2 2 2 2 1 1 1 1
10 12 10 9 9 9 7 4 2 3 3 4 6 7 7 8 9 9 9 9 8 8 8 8 7 7 5 5 4 3 3 2 2 1 1 1 1 2 2 2 2 2 2 2 2 2 2 2 2
13 13 13 10 8 9 8 3 6 2 3 4 5 7 7 8 8 9 10 9 9 9 8 8 7 6 6 5 5 4 4 3 3 2 1 1 1 1 2 2 2 2 2 2 2 2 3 3 3
Wind_Direction
192 193 217 236 191 78 70 71 77 89 78 72 71 57 60 45 44 82 102 113 116 114 111 111 95 95 93 92 92 92 92 93 93 94 94 93 94 95 96 97 97 97 97 98 98 99 100 100 101
192 198 229 238 69 80 73 71 77 74 92 101 84 77 78 70 68 100 120 119 122 113 111 102 101 98 96 95 95 95 95 94 94 94 94 94 94 95 94 95 98 99 98 98 99 100 101 102 104
205 232 267 67 60 65 77 79 86 92 100 97 89 68 64 80 95 107 118 129 120 108 107 103 105 101 98 96 95 96 95 95 95 94 94 93 94 95 94 95 97 98 98 98 100 102 103 104 105
225 217 188 75 74 67 78 91 101 106 95 91 103 91 79 69 92 113 126 129 122 122 116 107 106 101 98 97 96 97 97 96 95 94 93 93 92 94 96 94 95 97 99 99 101 104 105 106 108
240 240 95 83 78 77 80 84 90 92 92 100 103 101 91 82 106 120 131 133 127 120 115 112 107 104 101 97 96 97 97 96 94 93 93 92 92 94 95 95 96 98 100 101 103 106 109 108 108
231 147 85 83 85 87 90 92 95 94 102 107 112 108 94 116 126 130 133 133 126 124 117 116 115 106 104 102 99 99 97 97 98 97 97 96 95 95 96 97 99 100 103 104 107 110 111 111 110
333 68 80 87 93 93 86 92 91 104 112 110 115 109 117 135 131 134 131 129 128 125 123 129 133 129 122 107 102 101 101 100 100 99 100 101 100 100 102 101 100 101 104 106 110 114 113 114 114
315 98 93 88 89 90 102 101 95 107 103 114 128 124 137 141 141 137 136 139 136 133 127 130 126 127 139 132 117 109 107 106 105 102 105 116 123 123 124 127 108 105 106 109 114 119 119 120 121
268 97 83 78 83 99 123 122 107 105 121 121 96 100 125 138 146 147 148 147 144 140 136 137 132 132 132 126 129 141 136 133 145 134 136 172 151 133 143 97 108 113 113 116 121 128 134 144 145
295 70 73 65 74 105 127 124 128 139 134 126 116 113 127 145 154 159 159 159 157 158 155 143 140 130 138 123 132 144 144 137 142 112 131 129 95 86 96 112 122 126 132 140 141 151 179 207 167
47 65 81 92 93 112 128 127 140 148 136 143 145 143 148 155 161 166 164 162 156 163 163 155 150 153 160 139 149 130 125 134 146 130 142 113 135 145 144 144 152 160 176 173 158 188 197 180 144
93 81 83 102 117 128 122 125 131 100 75 118 144 149 155 162 167 169 166 166 161 169 170 166 157 160 163 168 153 171 164 156 149 142 198 150 150 166 131 178 155 166 162 163 195 185 170 202 192
107 95 101 113 128 121 127 118 103 95 102 126 141 153 161 166 166 169 165 168 167 174 182 174 174 169 180 186 231 183 182 186 153 157 168 228 203 204 179 246 279 243 178 180 205 229 189 208 206
91 115 123 124 125 139 142 126 126 110 127 137 151 161 168 169 170 168 172 177 180 183 187 183 188 181 190 193 207 228 221 202 255 214 207 245 246 233 230 224 244 252 244 252 246 227 225 228 226
154 151 140 134 141 150 170 143 128 131 144 150 158 165 168 173 175 179 180 185 185 186 190 192 195 188 196 207 214 218 231 224 240 264 253 259 257 244 247 247 240 247 242 230 239 247 244 234 227
190 192 165 141 164 166 229 120 127 149 160 160 164 168 175 179 186 185 185 190 190 188 187 196 203 190 197 210 228 242 251 252 251 252 254 259 271 258 259 255 251 253 253 248 241 246 252 249 246
199 205 166 145 177 183 230 116 131 162 172 170 174 177 183 183 194 191 193 193 194 194 193 195 203 204 212 210 217 241 251 260 266 263 266 266 265 263 261 267 263 255 249 250 257 232 253 256 259
193 197 175 159 162 204 217 158 144 173 188 182 183 185 188 193 196 193 196 195 195 197 197 200 200 206 214 216 213 233 248 253 256 265 264 266 263 262 268 262 260 261 256 249 251 258 249 259 263
208 218 182 138 146 220 222 211 171 179 196 196 191 191 194 199 193 189 192 197 196 199 199 201 207 201 205 213 218 221 230 246 253 253 256 261 266 261 259 276 270 265 262 263 254 251 246 245 251
215 213 191 154 153 241 241 229 190 189 203 206 199 198 199 195 191 189 195 198 201 199 201 204 208 205 207 210 223 229 243 246 243 265 274 271 268 266 254 258 268 263 260 260 260 251 262 253 232
216 225 211 188 187 215 251 221 191 189 205 208 210 207 204 199 195 192 196 201 200 201 202 203 205 206 208 209 209 209 213 237 236 241 253 266 270 268 275 274 271 275 269 263 262 255 254 259 250
211 213 224 207 222 203 241 254 173 184 195 203 206 206 204 200 200 197 196 199 199 197 196 198 198 202 202 203 214 219 230 239 244 250 260 259 258 266 263 263 266 266 269 272 264 252 255 254 254
210 176 210 220 236 242 217 265 146 166 205 204 203 204 204 200 199 199 199 196 195 191 189 187 190 195 197 204 208 220 233 240 244 242 252 263 260 265 268 269 270 269 271 275 278 277 260 255 257
159 165 182 221 235 236 228 258 239 148 220 199 186 195 202 199 196 196 193 186 184 183 182 181 180 188 192 198 208 219 229 237 253 254 263 259 260 267 276 275 276 274 275 272 266 266 257 262 263
198 202 205 212 221 224 184 245 261 59 334 264 189 182 190 190 189 185 182 175 173 174 175 177 177 181 185 194 205 212 221 230 241 257 259 275 286 288 294 293 286 282 278 274 268 254 268 269 261
210 222 229 232 229 200 183 240 218 95 73 188 178 169 173 176 175 175 172 169 166 167 170 175 176 178 180 183 190 206 213 227 238 248 279 287 298 309 322 306 301 306 302 293 283 275 268 268 266
204 224 242 246 250 247 203 219 207 180 169 155 149 151 160 165 166 164 163 161 160 163 166 169 168 168 169 173 175 188 202 224 252 257 257 286 305 321 343 341 340 333 329 322 304 322 322 317 293
241 214 217 238 234 236 220 223 212 178 175 159 146 139 146 153 156 156 155 153 152 152 152 154 154 155 159 166 173 162 174 185 205 245 18 9 5 0 353 354 354 350 352 343 332 351 34 23 11
195 208 218 231 242 245 232 200 119 176 172 169 146 137 143 146 146 144 141 140 143 145 147 148 146 147 150 151 148 146 145 145 146 129 87 55 27 16 4 4 4 4 10 14 24 28 47 46 36
214 211 207 218 220 241 259 163 109 137 164 161 145 138 136 136 137 138 137 141 146 146 145 147 145 146 151 148 143 139 133 129 122 105 75 60 48 34 28 21 20 21 29 32 41 41 47 51 48